Вернуться в каталог

STARLINK-31337

АктивенСвязьVLEO
NORAD 58934·PAYLOAD·🇺🇸 United States

Запущен Feb 10, 2024 с Vandenberg Space Force Base

Loading…

Ближайшие Пролёты (ближайшие 24 часа)

TLE

СвежийSource: CelesTrak SupGP

Эпоха: Sep 15, 2026, 01:53 UTC

1 58934C 24027D   26258.07895833  .00000180  00000+0  53117-5 0  2588
2 58934  53.1589 148.8854 0001292  73.4319 137.2147 15.34393629    12

Отслеживайте STARLINK-31337 в реальном времени с AllMySat

Download on the App Store